[[{"header":{"parameterUnit":"m.s-1","parameterCategory":1,"la1":30.2991,"la2":30.254,"lo1":-89.0895,"lo2":-89.0444,"dy":0.0017,"dx":0.0017,"nx":28,"ny":28,"refTime":"2023-04-08T21:00:00:Z","depth":0,"parameterNumber":2,"parameterNumberName":"U-component_of_WINDS"},"data":[0,0,0,0,0,0,0,0,0,0,0,0,0,0,0,0,0,0,0,0,0,0,0,0,0,0,0,0,0,0,0,0,0,0,0,0,0,0,0,0,0,0,0,0,0,0,0,0,0,0,0,0,0,0,0,0,0,0,-3.151,-3.1512,0,-3.1613,-3.1614,-3.1615,-3.1576,-3.1574,-3.1572,-3.1569,-3.1675,-3.168,-3.1685,0,0,0,0,0,0,0,0,0,0,0,0,0,-3.128,-3.1285,-3.151,-3.1512,-3.1513,-3.1613,-3.1614,-3.1616,-3.1577,-3.1574,-3.1571,-3.1568,-3.1673,-3.1679,-3.1685,0,0,0,0,0,0,0,0,0,0,0,0,0,-3.1381,-3.1286,-3.151,-3.1505,-3.1506,-3.1613,-3.1614,-3.1616,-3.1577,-3.1574,-3.157,-3.1567,-3.1671,-3.1679,-3.1686,-3.1803,0,0,-3.1709,-3.1712,0,0,0,0,0,0,0,0,-3.1376,-3.139,-3.1505,-3.1506,-3.1507,-3.1578,-3.1572,-3.1679,-3.1578,-3.155,-3.1569,-3.1565,-3.1646,-3.1655,-3.1682,-3.1808,-3.1813,-3.171,-3.1714,-3.1718,-3.172,0,0,0,0,0,0,0,-3.1369,-3.1385,-3.1551,-3.1507,-3.1508,-3.1498,-3.1509,-3.1592,-3.1617,-3.1552,-3.155,-3.1562,-3.1646,-3.1675,-3.1684,-3.1814,-3.171,-3.1716,-3.1721,-3.1724,-3.2041,-3.2045,0,0,0,0,0,0,-3.1361,-3.138,-3.1548,-3.1554,-3.1431,-3.1505,-3.1517,-3.1559,-3.1616,-3.1621,-3.1565,-3.156,-3.1664,-3.1676,-3.1688,-3.1829,-3.1718,-3.1725,-3.1729,-3.2037,-3.2042,-3.2046,0,0,0,0,0,0,-3.1356,-3.1377,-3.1544,-3.1466,-3.1487,-3.1513,-3.156,-3.1563,-3.1592,-3.1625,-3.163,-3.1591,-3.1662,-3.1677,-3.1775,-3.1832,-3.1728,-3.1735,-3.2033,-3.2039,-3.2044,-3.2112,0,0,0,0,0,0,-3.135,-3.1375,-3.142,-3.1467,-3.1491,-3.1629,-3.1564,-3.1567,-3.1605,-3.1599,-3.1651,-3.1656,-3.166,-3.1764,-3.1782,-3.1841,-3.1741,-3.2028,-3.2035,-3.2042,-3.2105,-3.212,-3.2132,0,0,0,0,0,-3.1342,-3.1436,-3.1423,-3.1443,-3.1548,-3.1633,-3.1646,-3.1649,-3.161,-3.1655,-3.1676,-3.1654,-3.1822,-3.1774,-3.1795,-3.1856,-3.2024,-3.2033,-3.2042,-3.2099,-3.2117,-3.2132,0,0,0,0,0,0,-3.1395,-3.1442,-3.1428,-3.154,-3.1582,-3.1626,-3.1683,-3.1668,-3.1723,-3.1715,-3.1716,-3.1728,-3.1829,-3.1852,-3.1797,-3.1972,-3.1917,-3.1931,-3.1954,-3.1971,-3.1984,-3.1977,-3.1747,0,0,0,0,0,-3.142,-3.1485,-3.1522,-3.1617,-3.1639,-3.1657,-3.1694,-3.1693,-3.1737,-3.1755,-3.1783,-3.1827,-3.189,-3.1932,-3.1991,-3.2107,-3.2118,-3.2159,-3.2173,-3.2184,-3.2196,-3.2259,-3.2278,-3.2075,-3.2075,-3.2075,0,0,-3.1472,-3.1505,-3.1546,-3.1628,-3.1661,-3.1728,-3.1673,-3.1747,-3.1796,-3.1766,-3.186,-3.1882,-3.1931,-3.2039,-3.2087,-3.2061,-3.2254,-3.2195,-3.2204,-3.221,-3.227,-3.2289,-3.2306,-3.2081,-3.208,-3.2079,0,0,-3.1601,-3.1632,-3.1715,-3.1749,-3.1799,-3.181,-3.183,-3.1876,-3.1889,-3.1983,-3.1962,-3.202,-3.2129,-3.2164,-3.2197,-3.2337,-3.2319,-3.2356,-3.2428,-3.249,-3.2506,-3.252,-3.257,-3.2588,-3.2368,-3.2368,-3.2368,0,-3.1659,-3.1759,-3.1759,-3.1835,-3.1871,-3.1846,-3.193,-3.1962,-3.203,-3.2055,-3.2024,-3.2159,-3.219,-3.2305,-3.234,-3.2366,-3.2389,-3.2352,-3.2503,-3.2517,-3.2531,-3.2579,-3.2598,-3.2372,-3.2372,-3.2371,-3.2371,0,-3.1829,-3.1899,-3.1959,-3.2024,-3.2067,-3.2146,-3.2158,-3.2202,-3.2196,-3.221,-3.2306,-3.2342,-3.2408,-3.2435,-3.243,-3.255,-3.2532,-3.2502,-3.2447,-3.2554,-3.26,-3.2618,-3.2379,-3.2377,-3.2376,-3.2375,0,0,-3.1997,-3.2059,-3.2082,-3.2111,-3.2163,-3.2217,-3.2294,-3.2359,-3.2396,-3.2443,-3.2508,-3.2599,-3.2571,-3.2608,-3.2607,-3.266,-3.2769,-3.2624,-3.2625,-3.265,-3.2903,-3.2926,-3.2947,-3.2756,-3.276,-3.2763,-3.2899,0,-3.213,-3.2266,-3.2268,-3.2393,-3.2457,-3.2433,-3.25,-3.254,-3.2555,-3.2611,-3.2628,-3.2693,-3.2651,-3.2673,-3.2725,-3.2745,-3.282,-3.2735,-3.2817,-3.282,-3.2807,-3.2971,-3.2996,-3.3123,-3.2917,-3.292,-3.2922,0,-3.2305,-3.2357,-3.2489,-3.2531,-3.2558,-3.2619,-3.2677,-3.2731,-3.2775,-3.2782,-3.2822,-3.2812,-3.2891,-3.2832,-3.294,-3.2882,-3.2915,-3.293,-3.2935,-3.2944,-3.2879,-3.2985,-3.3163,-3.3183,-3.295,-3.2947,-3.2945,0,-3.2415,-3.2518,-3.2609,-3.2635,-3.2686,-3.2729,-3.2753,-3.2793,-3.2831,-3.2882,-3.2907,-3.2966,-3.2999,-3.3045,-3.3051,-3.3008,-3.316,-3.3102,-3.3168,-3.3168,-3.3202,-3.32,-3.3389,-3.3222,-3.3222,-3.3221,-3.3221,0,-3.2566,-3.2647,-3.266,-3.2716,-3.2807,-3.2806,-3.2896,-3.2915,-3.2951,-3.3011,-3.2993,-3.305,-3.3054,-3.3111,-3.3116,-3.3205,-3.322,-3.3228,-3.3228,-3.323,-3.3229,-3.3253,-3.3245,-3.3226,-3.3225,-3.3224,-3.3223,0,-3.2705,-3.2716,-3.2815,-3.2855,-3.2867,-3.2932,-3.2966,-3.302,-3.3032,-3.3108,-3.3126,-3.3146,-3.3213,-3.3222,-3.3301,-3.3304,-3.3411,-3.3402,-3.3396,-3.3395,-3.3461,-3.3455,-3.3673,-3.3702,-3.3515,-3.3517,-3.3518,0,-3.2801,-3.2863,-3.2909,-3.2948,-3.2973,-3.3036,-3.3074,-3.3076,-3.3117,-3.3171,-3.3218,-3.3283,-3.3335,-3.3443,-3.3464,-3.3524,-3.3517,-3.3589,-3.3526,-3.3525,-3.3519,-3.3516,-3.3522,-3.3602,-3.3604,-3.3605,-3.3607,0,-3.297,-3.2972,-3.3029,-3.3087,-3.3133,-3.3179,-3.3223,-3.3255,-3.3262,-3.3309,-3.3377,-3.3417,-3.3497,-3.3562,-3.362,-3.3644,-3.3627,-3.3626,-3.3645,-3.3648,-3.3643,-3.3647,-3.3431,-3.3622,-3.362,-3.3619,-3.3618,-3.3618,-3.3091,-3.3145,-3.3186,-3.3249,-3.3281,-3.3322,-3.3374,-3.3393,-3.3449,-3.3514,-3.3511,-3.3586,-3.3627,-3.3704,-3.3731,-3.379,-3.3766,-3.3793,-3.38,-3.3807,-3.3814,-3.3632,-3.38,-3.38,-3.3799,-3.3799,-3.3799,0,-3.326,-3.3285,-3.3343,-3.3403,-3.3453,-3.3431,-3.3477,-3.352,-3.3586,-3.3625,-3.3677,-3.3754,-3.3816,-3.3842,-3.3903,-3.3944,-3.3938,-3.396,-3.3958,-3.3964,-3.3831,-3.3809,-3.3965,-3.3964,-3.3964,-3.3964,-3.3964,-3.3964,-3.3354,-3.3444,-3.3451,-3.3556,-3.358,-3.3653,-3.3681,-3.3718,-3.3749,-3.3837,-3.3888,-3.3904,-3.3937,-3.4,-3.4056,-3.4062,-3.4085,-3.4111,-3.4114,-3.399,-3.3973,-3.3957,-3.3937,-3.4116,-3.4117,-3.4242,-3.4243,-3.4244]},{"header":{"parameterUnit":"m.s-1","parameterCategory":1,"la1":30.2991,"la2":30.254,"lo1":-89.0895,"lo2":-89.0444,"dy":0.0017,"dx":0.0017,"nx":28,"ny":28,"refTime":"2023-04-08T21:00:00:Z","depth":0,"parameterNumber":3,"parameterNumberName":"V-component_of_WINDS"},"data":[0,0,0,0,0,0,0,0,0,0,0,0,0,0,0,0,0,0,0,0,0,0,0,0,0,0,0,0,0,0,0,0,0,0,0,0,0,0,0,0,0,0,0,0,0,0,0,0,0,0,0,0,0,0,0,0,0,0,-6.7549,-6.755,0,-6.7619,-6.7619,-6.762,-6.7546,-6.7543,-6.754,-6.7537,-6.7603,-6.7608,-6.7612,0,0,0,0,0,0,0,0,0,0,0,0,0,-6.7346,-6.735,-6.7549,-6.755,-6.7551,-6.7618,-6.7619,-6.762,-6.7546,-6.7543,-6.7539,-6.7536,-6.7602,-6.7607,-6.7612,0,0,0,0,0,0,0,0,0,0,0,0,0,-6.7426,-6.7351,-6.7549,-6.7522,-6.752,-6.7618,-6.7619,-6.7621,-6.7547,-6.7543,-6.7538,-6.7535,-6.76,-6.7607,-6.7613,-6.7739,0,0,-6.7633,-6.7636,0,0,0,0,0,0,0,0,-6.7422,-6.7434,-6.7525,-6.7524,-6.7522,-6.7569,-6.7572,-6.766,-6.7548,-6.7537,-6.7537,-6.7532,-6.7595,-6.7602,-6.7624,-6.7742,-6.7745,-6.7634,-6.7638,-6.7641,-6.7643,0,0,0,0,0,0,0,-6.7416,-6.743,-6.7576,-6.7527,-6.7525,-6.7504,-6.7511,-6.7588,-6.7589,-6.7537,-6.7532,-6.7542,-6.7593,-6.7618,-6.7625,-6.7746,-6.7634,-6.764,-6.7644,-6.7646,-6.7969,-6.7973,0,0,0,0,0,0,-6.7415,-6.7426,-6.7574,-6.7578,-6.7461,-6.7512,-6.7519,-6.7558,-6.7588,-6.7588,-6.7545,-6.7538,-6.7609,-6.7617,-6.7627,-6.7775,-6.7641,-6.7647,-6.7651,-6.7964,-6.797,-6.7975,0,0,0,0,0,0,-6.7411,-6.7429,-6.7571,-6.7501,-6.7518,-6.752,-6.7564,-6.7562,-6.7586,-6.7594,-6.7593,-6.7571,-6.7606,-6.7618,-6.7712,-6.7777,-6.765,-6.7656,-6.7959,-6.7966,-6.7972,-6.8074,0,0,0,0,0,0,-6.7405,-6.7428,-6.7477,-6.7503,-6.7522,-6.7657,-6.7568,-6.7566,-6.7599,-6.759,-6.7617,-6.7618,-6.7603,-6.7702,-6.7718,-6.7784,-6.7661,-6.7953,-6.7962,-6.797,-6.8065,-6.8084,-6.81,0,0,0,0,0,-6.7398,-6.7502,-6.748,-6.7498,-6.7584,-6.7661,-6.7671,-6.7654,-6.7604,-6.7653,-6.7657,-6.7617,-6.7767,-6.7713,-6.773,-6.7798,-6.7949,-6.7959,-6.7969,-6.8057,-6.808,-6.8099,0,0,0,0,0,0,-6.7482,-6.7505,-6.7481,-6.7597,-6.7628,-6.7648,-6.7709,-6.7679,-6.7724,-6.7713,-6.7688,-6.7695,-6.7795,-6.7806,-6.7745,-6.7921,-6.7849,-6.7864,-6.791,-6.7932,-6.7949,-6.7944,-6.7667,0,0,0,0,0,-6.7515,-6.7578,-6.7593,-6.7693,-6.7711,-6.7708,-6.774,-6.7725,-6.7755,-6.7767,-6.7778,-6.7808,-6.7861,-6.7897,-6.7947,-6.8066,-6.807,-6.8121,-6.8138,-6.8153,-6.8165,-6.8227,-6.825,-6.8009,-6.8009,-6.8008,0,0,-6.7582,-6.7602,-6.7643,-6.7711,-6.7733,-6.7796,-6.7719,-6.7789,-6.7835,-6.7777,-6.7867,-6.7876,-6.7907,-6.8014,-6.8061,-6.8026,-6.8233,-6.8166,-6.8177,-6.8182,-6.824,-6.8263,-6.8284,-6.8016,-6.8015,-6.8013,0,0,-6.7736,-6.7758,-6.7844,-6.7868,-6.7903,-6.79,-6.7921,-6.7946,-6.7951,-6.8041,-6.7998,-6.8051,-6.8144,-6.8168,-6.8192,-6.8354,-6.8318,-6.8371,-6.8461,-6.8522,-6.8541,-6.8558,-6.8615,-6.8635,-6.8383,-6.8384,-6.8384,0,-6.7814,-6.791,-6.7892,-6.7966,-6.7996,-6.7947,-6.8033,-6.8056,-6.8105,-6.8126,-6.8086,-6.8201,-6.8219,-6.833,-6.8369,-6.8391,-6.8412,-6.8367,-6.854,-6.8557,-6.8572,-6.8626,-6.8647,-6.839,-6.8389,-6.8388,-6.8388,0,-6.8004,-6.8071,-6.8136,-6.8186,-6.8224,-6.8303,-6.8294,-6.8334,-6.8314,-6.8315,-6.8406,-6.8425,-6.8477,-6.8502,-6.8484,-6.8611,-6.8587,-6.8545,-6.8472,-6.8602,-6.8652,-6.8672,-6.8398,-6.8396,-6.8394,-6.8393,0,0,-6.8214,-6.8253,-6.8277,-6.8299,-6.8333,-6.8383,-6.8459,-6.8512,-6.8546,-6.8581,-6.8642,-6.8722,-6.8682,-6.871,-6.8693,-6.8746,-6.8872,-6.8696,-6.8697,-6.8728,-6.9011,-6.9043,-6.9068,-6.8848,-6.8852,-6.8855,-6.9009,0,-6.8369,-6.8503,-6.8488,-6.8615,-6.8675,-6.8629,-6.8695,-6.8722,-6.8724,-6.8774,-6.8775,-6.8832,-6.8776,-6.8792,-6.8843,-6.8846,-6.8929,-6.8835,-6.8904,-6.8907,-6.8898,-6.9094,-6.9128,-6.9272,-6.9028,-6.9031,-6.9034,0,-6.8568,-6.8611,-6.8745,-6.8769,-6.8794,-6.8854,-6.89,-6.8949,-6.8978,-6.8975,-6.9006,-6.8979,-6.9053,-6.898,-6.908,-6.9016,-6.9043,-6.9049,-6.9054,-6.9059,-6.8978,-6.9104,-6.9318,-6.9339,-6.9065,-6.9062,-6.906,0,-6.8707,-6.8798,-6.889,-6.891,-6.8941,-6.8983,-6.8998,-6.9023,-6.9055,-6.9094,-6.9115,-6.9162,-6.9188,-6.9224,-6.921,-6.9158,-6.9312,-6.9238,-6.9311,-6.9311,-6.9345,-6.9343,-6.9566,-6.9364,-6.9364,-6.9363,-6.9363,0,-6.8881,-6.8964,-6.8953,-6.9009,-6.91,-6.9081,-6.917,-6.9179,-6.9201,-6.9256,-6.9219,-6.9271,-6.9249,-6.93,-6.9289,-6.9373,-6.9384,-6.9383,-6.9379,-6.9387,-6.9387,-6.9404,-6.9393,-6.9369,-6.9368,-6.9366,-6.9365,0,-6.9052,-6.9048,-6.9144,-6.9166,-6.9173,-6.9239,-6.9256,-6.9307,-6.9306,-6.9377,-6.9392,-6.939,-6.9447,-6.9437,-6.9499,-6.9492,-6.9597,-6.958,-6.9588,-6.9584,-6.9657,-6.965,-6.9897,-6.9928,-6.9707,-6.9709,-6.9711,0,-6.9163,-6.9226,-6.9255,-6.929,-6.9308,-6.9365,-6.9398,-6.938,-6.9415,-6.9452,-6.9499,-6.9553,-6.9596,-6.9688,-6.9691,-6.9739,-6.9723,-6.9806,-6.973,-6.9735,-6.9723,-6.9719,-6.9725,-6.9821,-6.9824,-6.9826,-6.9828,0,-6.9361,-6.9356,-6.9406,-6.9455,-6.9496,-6.9533,-6.9567,-6.9597,-6.9582,-6.9623,-6.9682,-6.9715,-6.9779,-6.9832,-6.9876,-6.9888,-6.9855,-6.9852,-6.9871,-6.9879,-6.988,-6.988,-6.9629,-6.9846,-6.9844,-6.9843,-6.9842,-6.9841,-6.9505,-6.9558,-6.9587,-6.9643,-6.9667,-6.9699,-6.9748,-6.9754,-6.9803,-6.9855,-6.9841,-6.9907,-6.9932,-6.9988,-7.0005,-7.0055,-7.0024,-7.0052,-7.0059,-7.0066,-7.0074,-6.9873,-7.0063,-7.0062,-7.0062,-7.0061,-7.0061,0,-6.97,-6.9716,-6.9768,-6.9817,-6.9861,-6.9827,-6.9862,-6.99,-6.996,-6.9987,-7.0029,-7.0096,-7.0147,-7.0154,-7.0202,-7.0241,-7.0227,-7.0254,-7.0251,-7.0254,-7.01,-7.0078,-7.0264,-7.0264,-7.0264,-7.0264,-7.0264,-7.0264,-6.9807,-6.9896,-6.9893,-6.9992,-7.0007,-7.0073,-7.0095,-7.0124,-7.0145,-7.0222,-7.0265,-7.027,-7.0288,-7.0337,-7.0381,-7.0382,-7.0401,-7.0434,-7.0429,-7.0285,-7.0265,-7.0245,-7.0225,-7.0439,-7.0439,-7.0578,-7.0579,-7.058]}]]